FW7828 Weather Reports


time (UTC)temp
C
wind
direction
speed
KPH
gust
KPH
rain 1hr
cm
rain 24hr
cm
rain mn
cm
humidity
%
barometer
mb
20260831075635 22 328 0.0 0.0 0.00 0.00 0.00 97 1017.8
20260831075130 22 352 0.0 0.0 0.00 0.00 0.00 97 1017.8
20260831074629 22 334 1.6 1.6 0.00 0.00 0.00 97 1017.7
20260831074124 22 338 0.0 0.0 0.00 0.00 0.00 97 1017.6
20260831073619 22 342 0.0 0.0 0.00 0.00 0.00 97 1017.8
20260831073118 22 349 0.0 0.0 0.00 0.00 0.00 97 1017.9
20260831072614 22 355 1.6 1.6 0.00 0.00 0.00 97 1017.7
20260831072111 22 341 1.6 1.6 0.00 0.00 0.00 96 1017.9
20260831071609 22 349 0.0 0.0 0.00 0.00 0.00 96 1017.6
20260831071104 23 343 0.0 0.0 0.00 0.00 0.00 96 1017.6
20260831070603 23 342 0.0 0.0 0.00 0.00 0.00 96 1017.8
20260831070058 23 342 0.0 0.0 0.00 0.00 0.00 96 1017.8
20260831065556 23 342 0.0 0.0 0.00 0.00 0.00 96 1017.8
20260831065050 23 342 0.0 0.0 0.00 0.00 0.00 96 1017.8
20260831064546 23 340 0.0 1.6 0.00 0.00 0.00 96 1017.7
20260831064041 23 342 0.0 0.0 0.00 0.00 0.00 96 1018.1
20260831063537 23 343 0.0 0.0 0.00 0.00 0.00 96 1017.9
20260831063031 23 349 0.0 0.0 0.00 0.00 0.00 96 1017.8
20260831062526 23 349 0.0 0.0 0.00 0.00 0.00 96 1017.8
20260831062026 23 349 0.0 0.0 0.00 0.00 0.00 96 1018.1
20260831061524 23 349 0.0 0.0 0.00 0.00 0.00 96 1018.0
20260831061020 23 351 0.0 0.0 0.00 0.00 0.00 96 1018.1
20260831060520 23 355 0.0 0.0 0.00 0.00 0.00 96 1018.2
20260831060016 23 355 0.0 0.0 0.00 0.00 0.00 96 1018.1
20260831055510 23 356 0.0 0.0 0.00 0.00 0.00 96 1018.1
20260831055006 23 2 0.0 0.0 0.00 0.00 0.00 96 1018.3
20260831054506 23 354 0.0 0.0 0.00 0.00 0.00 96 1018.2
20260831054005 23 348 0.0 0.0 0.00 0.00 0.00 96 1018.5
20260831053503 23 350 0.0 0.0 0.00 0.00 0.00 96 1018.5
20260831052958 23 350 0.0 0.0 0.00 0.00 0.00 96 1018.4
20260831052457 23 342 0.0 0.0 0.00 0.00 0.00 96 1018.8
20260831051956 23 350 0.0 0.0 0.00 0.00 0.00 96 1018.9
20260831051455 23 350 0.0 0.0 0.00 0.00 0.00 96 1018.6
20260831050954 23 350 0.0 0.0 0.00 0.00 0.00 96 1018.5
20260831050449 23 359 0.0 0.0 0.00 0.00 0.00 96 1018.6
20260831045948 23 339 0.0 0.0 0.00 0.00 0.00 96 1018.6
20260831045447 23 348 0.0 0.0 0.00 0.00 0.00 96 1018.6
20260831044942 23 353 0.0 0.0 0.00 0.00 0.00 96 1018.5
20260831044437 23 341 0.0 0.0 0.00 0.00 0.00 96 1018.6
20260831043933 23 346 0.0 0.0 0.00 0.00 0.00 96 1018.8
20260831043433 23 350 0.0 0.0 0.00 0.00 0.00 96 1018.5
20260831042928 23 355 0.0 0.0 0.00 0.00 0.00 96 1018.7
20260831042427 23 355 0.0 0.0 0.00 0.00 0.00 96 1018.6
20260831041922 23 355 0.0 0.0 0.00 0.00 0.00 96 1018.7
20260831041422 23 357 0.0 0.0 0.00 0.00 0.00 95 1018.6
20260831040917 23 352 0.0 0.0 0.00 0.00 0.00 95 1018.6
20260831040412 23 352 0.0 0.0 0.00 0.00 0.00 95 1018.6
20260831035909 23 350 0.0 0.0 0.00 0.00 0.00 95 1018.4
20260831035408 23 3 0.0 0.0 0.00 0.00 0.00 95 1018.4
20260831034903 23 10 0.0 0.0 0.00 0.00 0.00 95 1018.4
20260831034358 23 340 0.0 0.0 0.00 0.00 0.00 95 1018.7
20260831033853 23 341 1.6 1.6 0.00 0.00 0.00 95 1018.6
20260831033348 23 352 1.6 1.6 0.00 0.00 0.00 95 1018.6
20260831032844 23 346 0.0 0.0 0.00 0.00 0.00 95 1018.3
20260831032344 23 346 0.0 0.0 0.00 0.00 0.00 95 1018.4
20260831031839 23 354 0.0 0.0 0.00 0.00 0.00 95 1018.4
20260831031338 23 325 0.0 0.0 0.00 0.00 0.00 95 1018.7
20260831030834 23 337 0.0 0.0 0.00 0.00 0.00 95 1018.9
20260831030332 23 317 0.0 0.0 0.00 0.00 0.00 95 1018.6
20260831025826 23 354 0.0 0.0 0.00 0.00 0.00 95 1018.6
20260831025325 23 350 0.0 0.0 0.00 0.00 0.00 95 1018.6
20260831024821 23 293 0.0 1.6 0.00 0.00 0.00 95 1018.8
20260831024320 24 348 0.0 0.0 0.00 0.00 0.00 95 1018.6
20260831023819 24 341 0.0 0.0 0.00 0.00 0.00 95 1018.6
20260831023318 24 347 0.0 0.0 0.00 0.00 0.00 95 1018.7
20260831022814 24 345 0.0 0.0 0.00 0.00 0.00 94 1018.9
20260831022312 24 348 0.0 0.0 0.00 0.00 0.00 94 1018.7
20260831021808 24 347 0.0 0.0 0.00 0.00 0.00 94 1018.8
20260831021302 24 351 0.0 0.0 0.00 0.00 0.00 94 1018.8
20260831020758 24 354 0.0 0.0 0.00 0.00 0.00 94 1018.9
20260831020257 24 359 0.0 0.0 0.00 0.00 0.00 94 1018.8
20260831015753 24 0 0.0 0.0 0.00 0.00 0.00 94 1018.8
20260831015248 24 0 0.0 0.0 0.00 0.00 0.00 94 1018.7
20260831014743 24 0 0.0 0.0 0.00 0.00 0.00 94 1019.0
20260831014243 24 0 0.0 0.0 0.00 0.00 0.00 94 1018.7
20260831013739 24 359 0.0 0.0 0.00 0.00 0.00 93 1018.9
20260831013238 24 0 0.0 0.0 0.00 0.00 0.00 93 1018.7
20260831012733 24 0 0.0 0.0 0.00 0.00 0.00 93 1018.7
20260831012229 24 0 0.0 0.0 0.00 0.00 0.00 93 1018.9
20260831011727 24 359 0.0 0.0 0.00 0.00 0.00 93 1018.8
20260831011224 25 1 0.0 0.0 0.00 0.00 0.00 93 1018.7
20260831010719 25 0 0.0 0.0 0.00 0.00 0.00 92 1018.8
20260831010214 25 359 0.0 0.0 0.00 0.00 0.00 92 1018.6
20260831005709 25 0 0.0 0.0 0.00 0.00 0.00 92 1018.5
20260831005204 25 1 0.0 0.0 0.00 0.00 0.00 92 1018.4
20260831004659 25 0 0.0 0.0 0.00 0.00 0.00 92 1018.7
20260831004155 25 0 0.0 0.0 0.00 0.00 0.00 92 1018.5
20260831003651 25 0 0.0 0.0 0.00 0.00 0.00 92 1018.4
20260831003147 25 1 0.0 0.0 0.00 0.00 0.00 91 1018.6
20260831002645 25 0 0.0 0.0 0.00 0.00 0.00 91 1018.6
20260831002141 25 359 0.0 0.0 0.00 0.00 0.00 91 1018.6
20260831001637 25 0 0.0 0.0 0.00 0.00 0.00 90 1018.2
20260831001132 25 354 0.0 0.0 0.00 0.00 0.00 90 1018.5
20260831000629 25 306 0.0 1.6 0.00 0.00 0.00 89 1018.5
20260831000128 25 3 0.0 0.0 0.00 0.00 0.00 89 1018.3
20260830235627 25 217 0.0 0.0 0.00 0.00 0.00 89 1018.4
20260830235122 26 33 0.0 0.0 0.00 0.00 0.00 89 1018.4
20260830234617 26 137 0.0 0.0 0.00 0.00 0.00 88 1018.4
20260830234112 26 119 1.6 3.2 0.00 0.00 0.00 88 1018.4
20260830233608 26 102 0.0 0.0 0.00 0.00 0.00 88 1018.6
20260830233104 26 131 0.0 0.0 0.00 0.00 0.00 88 1018.8
20260830232559 26 121 0.0 0.0 0.00 0.00 0.00 88 1018.6
20260830232055 26 142 0.0 1.6 0.00 0.00 0.00 87 1018.7
20260830231551 26 114 0.0 0.0 0.00 0.00 0.00 87 1018.8
20260830231050 26 130 4.8 4.8 0.00 0.00 0.00 86 1018.8
20260830230545 26 184 4.8 4.8 0.00 0.00 0.00 86 1018.9
20260830230040 26 154 3.2 3.2 0.00 0.00 0.00 86 1018.8
20260830225536 26 137 1.6 1.6 0.00 0.00 0.00 86 1019.0
20260830225035 27 147 1.6 1.6 0.00 0.00 0.00 87 1018.8
20260830224533 27 154 1.6 3.2 0.00 0.00 0.00 86 1018.8
20260830224031 27 144 3.2 3.2 0.00 0.00 0.00 86 1018.9
20260830223527 27 154 1.6 3.2 0.00 0.00 0.00 86 1018.8
20260830223022 27 144 1.6 1.6 0.00 0.00 0.00 86 1018.9
20260830222521 28 153 3.2 3.2 0.00 0.00 0.00 85 1018.6
20260830222018 28 133 1.6 1.6 0.00 0.00 0.00 83 1018.6
20260830221514 27 103 0.0 0.0 0.00 0.00 0.00 85 1018.6
20260830221010 28 353 0.0 0.0 0.00 0.00 0.00 85 1018.6
20260830220509 28 349 0.0 0.0 0.00 0.00 0.00 85 1018.8
20260830220008 28 26 0.0 0.0 0.00 0.00 0.00 84 1018.6
20260830215502 28 30 0.0 0.0 0.00 0.00 0.00 83 1018.7
20260830214956 28 139 0.0 0.0 0.00 0.00 0.00 82 1018.7
20260830214451 28 10 0.0 0.0 0.00 0.00 0.00 83 1018.6
20260830213946 28 99 1.6 1.6 0.00 0.00 0.00 80 1018.8
20260830213441 28 125 3.2 3.2 0.00 0.00 0.00 80 1018.6
20260830212937 28 47 0.0 0.0 0.00 0.00 0.00 83 1018.5
20260830212432 28 70 0.0 0.0 0.00 0.00 0.00 81 1018.6
20260830211931 28 118 1.6 3.2 0.00 0.00 0.00 79 1018.5
20260830211426 28 105 0.0 1.6 0.00 0.00 0.00 79 1018.5
20260830210922 28 77 0.0 1.6 0.00 0.00 0.00 77 1018.4
20260830210421 29 59 0.0 0.0 0.00 0.00 0.00 79 1018.5
20260830205919 29 102 3.2 3.2 0.00 0.00 0.00 77 1018.5
20260830205418 28 56 0.0 0.0 0.00 0.00 0.00 79 1018.6
20260830204914 28 82 1.6 1.6 0.00 0.00 0.00 79 1018.3
20260830204413 29 73 0.0 0.0 0.00 0.00 0.00 78 1018.3
20260830203908 29 75 1.6 1.6 0.00 0.00 0.00 78 1018.5
20260830203404 29 110 1.6 1.6 0.00 0.00 0.00 76 1018.5
20260830202903 29 77 3.2 3.2 0.00 0.00 0.00 76 1018.6
20260830202359 28 50 0.0 0.0 0.00 0.00 0.00 79 1018.6
20260830201855 28 129 1.6 1.6 0.00 0.00 0.00 77 1018.7
20260830201354 28 107 1.6 3.2 0.00 0.00 0.00 77 1018.5
20260830200849 29 125 1.6 3.2 0.00 0.00 0.00 76 1018.8
20260830200349 29 110 3.2 3.2 0.00 0.00 0.00 76 1018.7
20260830195844 30 92 1.6 1.6 0.00 0.00 0.00 74 1018.5
20260830195338 30 84 0.0 1.6 0.00 0.00 0.00 70 1018.5
20260830194837 30 56 0.0 0.0 0.00 0.00 0.00 70 1018.5
20260830194330 30 65 0.0 1.6 0.00 0.00 0.00 67 1018.8
20260830193825 30 67 1.6 1.6 0.00 0.00 0.00 69 1018.9
20260830193319 30 116 1.6 1.6 0.00 0.00 0.00 69 1019.0
20260830192816 30 96 1.6 1.6 0.00 0.00 0.00 70 1018.9
20260830192315 30 137 1.6 3.2 0.00 0.00 0.00 68 1019.1
20260830191811 30 113 1.6 1.6 0.00 0.00 0.00 67 1019.1
20260830191310 30 128 3.2 3.2 0.00 0.00 0.00 68 1018.9
20260830190806 30 98 1.6 1.6 0.00 0.00 0.00 67 1019.4
20260830190301 30 98 1.6 3.2 0.00 0.00 0.00 67 1019.3
20260830185800 30 127 1.6 1.6 0.00 0.00 0.00 73 1019.3
20260830185255 30 115 1.6 3.2 0.00 0.00 0.00 67 1019.2
20260830184755 30 43 0.0 0.0 0.00 0.00 0.00 71 1019.4
20260830184254 30 92 1.6 1.6 0.00 0.00 0.00 73 1019.4
20260830183750 29 111 3.2 3.2 0.00 0.00 0.00 69 1019.8
20260830183250 30 93 3.2 3.2 0.00 0.00 0.00 70 1019.7
20260830182745 29 96 1.6 1.6 0.00 0.00 0.00 72 1019.7
20260830182241 30 118 1.6 3.2 0.00 0.00 0.00 73 1019.6
20260830181737 30 116 0.0 1.6 0.00 0.00 0.00 70 1019.7
20260830181232 30 89 1.6 3.2 0.00 0.00 0.00 71 1019.5
20260830180730 30 143 1.6 3.2 0.00 0.00 0.00 70 1019.6
20260830180225 30 124 1.6 1.6 0.00 0.00 0.00 69 1019.7
20260830175720 30 79 1.6 1.6 0.00 0.00 0.00 71 1019.4
20260830175215 29 70 0.0 1.6 0.00 0.00 0.00 73 1019.6
20260830174709 29 126 3.2 3.2 0.00 0.00 0.00 73 1019.7
20260830174206 30 148 1.6 1.6 0.00 0.00 0.00 72 1019.8
20260830173705 29 139 3.2 3.2 0.00 0.00 0.00 74 1019.8
20260830173200 30 105 3.2 3.2 0.00 0.00 0.00 71 1019.8
20260830172657 29 75 0.0 1.6 0.00 0.00 0.00 74 1019.9
20260830172153 29 119 1.6 1.6 0.00 0.00 0.00 74 1019.9
20260830171648 29 132 1.6 1.6 0.00 0.00 0.00 74 1019.8
20260830171143 29 146 1.6 1.6 0.00 0.00 0.00 71 1020.3
20260830170637 29 95 1.6 1.6 0.00 0.00 0.00 75 1020.1
20260830170137 29 116 4.8 4.8 0.00 0.00 0.00 75 1020.1
20260830165631 29 101 0.0 0.0 0.00 0.00 0.00 75 1020.4
20260830165127 28 114 0.0 1.6 0.00 0.00 0.00 75 1020.4
20260830164623 29 130 3.2 3.2 0.00 0.00 0.00 74 1020.2
20260830164119 28 124 1.6 1.6 0.00 0.00 0.00 73 1020.4
20260830163616 28 124 1.6 3.2 0.00 0.00 0.00 74 1020.4
20260830163115 28 130 1.6 3.2 0.00 0.00 0.00 76 1020.6
20260830162611 28 88 1.6 1.6 0.00 0.00 0.00 76 1020.4
20260830162106 28 124 1.6 1.6 0.00 0.00 0.00 77 1020.5
20260830161601 28 139 1.6 3.2 0.00 0.00 0.00 77 1020.6
20260830161055 28 100 1.6 1.6 0.00 0.00 0.00 77 1020.4
20260830160551 28 82 0.0 1.6 0.00 0.00 0.00 78 1020.7
20260830160046 28 113 1.6 3.2 0.00 0.00 0.00 77 1020.2
20260830155543 28 91 1.6 1.6 0.00 0.00 0.00 77 1020.4
20260830155038 28 115 3.2 3.2 0.00 0.00 0.00 78 1020.5
20260830154533 28 94 1.6 3.2 0.00 0.00 0.00 78 1020.5
20260830154030 28 126 3.2 3.2 0.00 0.00 0.00 78 1020.7
20260830153526 29 89 1.6 1.6 0.00 0.00 0.00 79 1020.6
20260830153025 28 357 1.6 1.6 0.00 0.00 0.00 79 1020.6
20260830152520 28 38 0.0 0.0 0.00 0.00 0.00 80 1020.9
20260830152018 28 31 0.0 1.6 0.00 0.00 0.00 81 1020.8
20260830151513 28 12 1.6 1.6 0.00 0.00 0.00 81 1020.9
20260830151008 27 34 0.0 1.6 0.00 0.00 0.00 82 1021.0
20260830150502 28 350 1.6 1.6 0.00 0.00 0.00 82 1021.1
20260830150001 28 33 1.6 1.6 0.00 0.00 0.00 83 1021.1
20260830145456 28 85 3.2 3.2 0.00 0.00 0.00 83 1021.0
20260830144951 28 89 1.6 1.6 0.00 0.00 0.00 81 1021.5
20260830144447 28 79 0.0 1.6 0.00 0.00 0.00 81 1021.4
20260830143942 27 80 1.6 1.6 0.00 0.00 0.00 84 1021.4
20260830143438 27 153 3.2 3.2 0.00 0.00 0.00 84 1021.2
20260830142936 27 114 4.8 4.8 0.00 0.00 0.00 85 1021.2
20260830142431 27 109 3.2 3.2 0.00 0.00 0.00 86 1021.3
20260830141926 27 100 1.6 1.6 0.00 0.00 0.00 87 1021.2
20260830141422 26 120 3.2 3.2 0.00 0.00 0.00 88 1021.0
20260830140917 26 122 1.6 1.6 0.00 0.00 0.00 90 1021.1
20260830140412 25 157 3.2 3.2 0.00 0.00 0.00 93 1021.1
20260830135911 25 97 1.6 1.6 0.00 0.00 0.00 97 1021.4
20260830135407 25 78 1.6 1.6 0.00 0.00 0.00 97 1021.3
20260830134902 25 9 0.0 0.0 0.00 0.00 0.00 98 1021.3
20260830134357 25 352 0.0 0.0 0.00 0.00 0.00 98 1021.2
20260830133853 25 9 0.0 0.0 0.00 0.00 0.00 98 1021.4
20260830133348 25 5 0.0 0.0 0.00 0.00 0.00 98 1021.4
20260830132843 25 63 0.0 0.0 0.00 0.00 0.00 98 1021.3
20260830132340 25 38 0.0 0.0 0.00 0.00 0.00 98 1021.3
20260830131838 25 7 0.0 0.0 0.00 0.00 0.00 98 1021.1
20260830131339 23 347 0.0 0.0 0.00 0.00 0.00 98 1021.3
20260830130833 23 348 0.0 0.0 0.00 0.00 0.00 98 1021.3
20260830130329 23 334 0.0 0.0 0.00 0.00 0.00 98 1020.9
20260830125828 22 334 0.0 0.0 0.00 0.00 0.00 98 1021.2
20260830125324 22 340 0.0 0.0 0.00 0.00 0.00 98 1021.0
20260830124821 22 338 0.0 0.0 0.00 0.00 0.00 98 1021.1
20260830124316 22 339 0.0 0.0 0.00 0.00 0.00 98 1020.9
20260830123813 22 339 0.0 0.0 0.00 0.00 0.00 98 1021.1
20260830123309 22 336 0.0 0.0 0.00 0.00 0.00 98 1021.2
20260830122807 22 343 0.0 0.0 0.00 0.00 0.00 98 1021.2
20260830122302 22 341 0.0 0.0 0.00 0.00 0.00 98 1021.2
20260830121757 22 346 0.0 1.6 0.00 0.00 0.00 98 1021.4
20260830121256 22 340 1.6 1.6 0.00 0.00 0.00 98 1021.5
20260830120751 22 340 1.6 1.6 0.00 0.00 0.00 98 1021.4
20260830120247 22 354 1.6 1.6 0.00 0.00 0.00 98 1021.5
20260830115744 22 357 1.6 1.6 0.00 0.00 0.00 98 1021.5
20260830115239 22 341 1.6 3.2 0.00 0.00 0.00 98 1021.4
20260830114735 22 2 1.6 1.6 0.00 0.00 0.00 98 1021.6
20260830114230 21 342 1.6 1.6 0.00 0.00 0.00 98 1021.4
20260830113725 21 341 1.6 1.6 0.00 0.00 0.00 98 1021.3
20260830113220 21 337 1.6 1.6 0.00 0.00 0.00 98 1021.4
20260830112716 21 343 1.6 1.6 0.00 0.00 0.00 98 1021.2
20260830112212 21 343 0.0 1.6 0.00 0.00 0.00 98 1021.5
20260830111707 21 339 1.6 1.6 0.00 0.00 0.00 98 1021.0
20260830111203 21 339 1.6 1.6 0.00 0.00 0.00 98 1021.1
20260830110657 21 340 0.0 0.0 0.00 0.00 0.00 98 1021.3
20260830110153 21 332 0.0 0.0 0.00 0.00 0.00 98 1021.3
20260830105653 21 346 0.0 0.0 0.00 0.00 0.00 98 1021.3
20260830105148 21 351 0.0 0.0 0.00 0.00 0.00 98 1021.1
20260830104645 21 341 0.0 0.0 0.00 0.00 0.00 98 1021.0
20260830104142 21 340 0.0 0.0 0.00 0.00 0.00 98 1020.9
20260830103640 21 344 0.0 0.0 0.00 0.00 0.00 98 1020.9
20260830103136 21 342 0.0 0.0 0.00 0.00 0.00 98 1021.2
20260830102635 21 336 0.0 0.0 0.00 0.00 0.00 98 1020.9
20260830102131 21 343 0.0 0.0 0.00 0.00 0.00 98 1021.1
20260830101627 21 348 0.0 0.0 0.00 0.00 0.00 98 1020.8
20260830101126 21 344 0.0 0.0 0.00 0.00 0.00 98 1020.8
20260830100621 21 349 0.0 0.0 0.00 0.00 0.00 98 1020.8
20260830100120 21 329 0.0 0.0 0.00 0.00 0.00 98 1020.7
20260830095614 21 336 1.6 1.6 0.00 0.00 0.00 98 1020.8
20260830095111 21 345 1.6 1.6 0.00 0.00 0.00 98 1020.9
20260830094607 21 345 0.0 0.0 0.00 0.00 0.00 98 1020.8
20260830094101 21 341 0.0 0.0 0.00 0.00 0.00 98 1020.9
20260830093556 21 344 1.6 1.6 0.00 0.00 0.00 98 1020.8
20260830093053 21 341 1.6 1.6 0.00 0.00 0.00 98 1020.8
20260830092548 21 339 1.6 1.6 0.00 0.00 0.00 98 1020.9
20260830092045 21 344 1.6 1.6 0.00 0.00 0.00 98 1020.6
20260830091540 21 339 0.0 1.6 0.00 0.00 0.00 98 1020.8
20260830091039 21 348 0.0 0.0 0.00 0.00 0.00 98 1020.4
20260830090534 21 348 1.6 1.6 0.00 0.00 0.00 98 1020.4
20260830090029 21 337 0.0 1.6 0.00 0.00 0.00 98 1020.4
20260830085523 21 345 1.6 1.6 0.00 0.00 0.00 98 1020.6
20260830085019 21 343 1.6 1.6 0.00 0.00 0.00 98 1020.3
20260830084514 21 347 0.0 1.6 0.00 0.00 0.00 98 1020.3
20260830084009 21 342 1.6 1.6 0.00 0.00 0.00 98 1020.2
20260830083505 21 344 1.6 1.6 0.00 0.00 0.00 98 1020.3
20260830083004 21 343 1.6 1.6 0.00 0.00 0.00 98 1020.2
20260830082500 21 346 0.0 0.0 0.00 0.00 0.00 98 1020.3
20260830081954 21 344 1.6 1.6 0.00 0.00 0.00 97 1020.4
20260830081450 21 349 0.0 1.6 0.00 0.00 0.00 97 1020.6
20260830080949 21 343 0.0 1.6 0.00 0.00 0.00 97 1020.7
20260830080445 21 344 0.0 0.0 0.00 0.00 0.00 97 1020.7